Year,Month,Day,Hour,Minute,Value (Times are PST for temperature in C)
2010,01,18,00,00,10.30
2010,01,18,00,01,10.30
2010,01,18,00,02,10.30
2010,01,18,00,03,10.30
2010,01,18,00,04,10.30
2010,01,18,00,05,10.30
2010,01,18,00,06,10.30
2010,01,18,00,07,10.30
2010,01,18,00,08,10.30
2010,01,18,00,09,10.30
2010,01,18,00,10,10.40
2010,01,18,00,11,10.40
2010,01,18,00,12,10.40
2010,01,18,00,13,10.40
2010,01,18,00,14,10.40
2010,01,18,00,15,10.30
2010,01,18,00,16,10.30
2010,01,18,00,17,10.20
2010,01,18,00,18,10.10
2010,01,18,00,19,10.10
2010,01,18,00,20,10.10
2010,01,18,00,21,10.10
2010,01,18,00,22,9.90
2010,01,18,00,23,9.90
2010,01,18,00,24,9.90
2010,01,18,00,25,9.90
2010,01,18,00,26,9.90
2010,01,18,00,27,9.80
2010,01,18,00,28,9.80
2010,01,18,00,29,9.80
2010,01,18,00,30,9.70
2010,01,18,00,31,9.70
2010,01,18,00,32,9.70
2010,01,18,00,33,9.70
2010,01,18,00,34,9.70
2010,01,18,00,35,9.60
2010,01,18,00,36,9.60
2010,01,18,00,37,9.60
2010,01,18,00,38,9.60
2010,01,18,00,39,9.50
2010,01,18,00,40,9.50
2010,01,18,00,41,9.50
2010,01,18,00,42,9.60
2010,01,18,00,43,9.70
2010,01,18,00,44,9.70
2010,01,18,00,45,9.70
2010,01,18,00,46,9.80
2010,01,18,00,47,9.80
2010,01,18,00,48,9.90
2010,01,18,00,49,9.90
2010,01,18,00,50,9.90
2010,01,18,00,51,9.90
2010,01,18,00,52,9.90
2010,01,18,00,53,9.90
2010,01,18,00,54,9.90
2010,01,18,00,55,9.90
2010,01,18,00,56,9.90
2010,01,18,00,57,9.90
2010,01,18,00,58,9.90
2010,01,18,00,59,9.90
2010,01,18,01,00,9.90
2010,01,18,01,01,9.90
2010,01,18,01,02,9.90
2010,01,18,01,03,10.00
2010,01,18,01,04,10.10
2010,01,18,01,05,10.10
2010,01,18,01,06,10.10
2010,01,18,01,07,10.10
2010,01,18,01,08,10.10
2010,01,18,01,09,10.10
2010,01,18,01,10,10.10
2010,01,18,01,11,10.10
2010,01,18,01,12,10.10
2010,01,18,01,13,10.10
2010,01,18,01,14,10.10
2010,01,18,01,15,10.10
2010,01,18,01,16,10.10
2010,01,18,01,17,10.10
2010,01,18,01,18,10.20
2010,01,18,01,19,10.20
2010,01,18,01,20,10.30
2010,01,18,01,21,10.30
2010,01,18,01,22,10.30
2010,01,18,01,23,10.40
2010,01,18,01,24,10.40
2010,01,18,01,25,10.40
2010,01,18,01,26,10.40
2010,01,18,01,27,10.40
2010,01,18,01,28,10.40
2010,01,18,01,29,10.40
2010,01,18,01,30,10.40
2010,01,18,01,31,10.50
2010,01,18,01,32,10.60
2010,01,18,01,33,10.60
2010,01,18,01,34,10.60
2010,01,18,01,35,10.60
2010,01,18,01,36,10.60
2010,01,18,01,37,10.60
2010,01,18,01,38,10.60
2010,01,18,01,39,10.60
2010,01,18,01,40,10.60
2010,01,18,01,41,10.60
2010,01,18,01,42,10.40
2010,01,18,01,43,10.40
2010,01,18,01,44,10.40
2010,01,18,01,45,10.40
2010,01,18,01,46,10.40
2010,01,18,01,47,10.40
2010,01,18,01,48,10.40
2010,01,18,01,49,10.40
2010,01,18,01,50,10.40
2010,01,18,01,51,10.40
2010,01,18,01,52,10.40
2010,01,18,01,53,10.40
2010,01,18,01,54,10.40
2010,01,18,01,55,10.40
2010,01,18,01,56,10.30
2010,01,18,01,57,10.30
2010,01,18,01,58,10.30
2010,01,18,01,59,10.20
2010,01,18,02,00,10.20
2010,01,18,02,01,10.20
2010,01,18,02,02,10.20
2010,01,18,02,03,10.20
2010,01,18,02,04,10.20
2010,01,18,02,05,10.10
2010,01,18,02,06,10.10
2010,01,18,02,07,10.10
2010,01,18,02,08,10.10
2010,01,18,02,09,10.10
2010,01,18,02,10,10.10
2010,01,18,02,11,10.10
2010,01,18,02,12,10.10
2010,01,18,02,13,10.10
2010,01,18,02,14,10.10
2010,01,18,02,15,10.10
2010,01,18,02,16,10.10
2010,01,18,02,17,10.10
2010,01,18,02,18,10.10
2010,01,18,02,19,10.10
2010,01,18,02,20,10.00
2010,01,18,02,21,9.90
2010,01,18,02,22,9.90
2010,01,18,02,23,9.90
2010,01,18,02,24,9.90
2010,01,18,02,25,9.80
2010,01,18,02,26,9.80
2010,01,18,02,27,9.80
2010,01,18,02,28,9.70
2010,01,18,02,29,9.70
2010,01,18,02,30,9.70
2010,01,18,02,31,9.70
2010,01,18,02,32,9.70
2010,01,18,02,33,9.70
2010,01,18,02,34,9.60
2010,01,18,02,35,9.60
2010,01,18,02,36,9.60
2010,01,18,02,37,9.60
2010,01,18,02,38,9.50
2010,01,18,02,39,9.50
2010,01,18,02,40,9.50
2010,01,18,02,41,9.40
2010,01,18,02,42,9.50
2010,01,18,02,43,9.50
2010,01,18,02,44,9.40
2010,01,18,02,45,9.40
2010,01,18,02,46,9.40
2010,01,18,02,47,9.40
2010,01,18,02,48,9.40
2010,01,18,02,49,9.40
2010,01,18,02,50,9.40
2010,01,18,02,51,9.40
2010,01,18,02,52,9.40
2010,01,18,02,53,9.30
2010,01,18,02,54,9.30
2010,01,18,02,55,9.30
2010,01,18,02,56,9.20
2010,01,18,02,57,9.20
2010,01,18,02,58,9.20
2010,01,18,02,59,9.20
2010,01,18,03,00,9.20
2010,01,18,03,01,9.20
2010,01,18,03,02,9.20
2010,01,18,03,03,9.20
2010,01,18,03,04,9.20
2010,01,18,03,05,9.20
2010,01,18,03,06,9.20
2010,01,18,03,07,9.20
2010,01,18,03,08,9.20
2010,01,18,03,09,9.20
2010,01,18,03,10,9.20
2010,01,18,03,11,9.20
2010,01,18,03,12,9.20
2010,01,18,03,13,9.20
2010,01,18,03,14,9.20
2010,01,18,03,15,9.20
2010,01,18,03,16,9.20
2010,01,18,03,17,9.20
2010,01,18,03,18,9.20
2010,01,18,03,19,9.20
2010,01,18,03,20,9.20
2010,01,18,03,21,9.20
2010,01,18,03,22,9.20
2010,01,18,03,23,9.20
2010,01,18,03,24,9.20
2010,01,18,03,25,9.10
2010,01,18,03,26,9.10
2010,01,18,03,27,9.10
2010,01,18,03,28,9.20
2010,01,18,03,29,9.20
2010,01,18,03,30,9.20
2010,01,18,03,31,9.20
2010,01,18,03,32,9.20
2010,01,18,03,33,9.20
2010,01,18,03,34,9.20
2010,01,18,03,35,9.20
2010,01,18,03,36,9.20
2010,01,18,03,37,9.20
2010,01,18,03,38,9.20
2010,01,18,03,39,9.20
2010,01,18,03,40,9.20
2010,01,18,03,41,9.20
2010,01,18,03,42,9.20
2010,01,18,03,43,9.20
2010,01,18,03,44,9.20
2010,01,18,03,45,9.10
2010,01,18,03,46,9.10
2010,01,18,03,47,9.10
2010,01,18,03,48,9.10
2010,01,18,03,49,9.10
2010,01,18,03,50,9.10
2010,01,18,03,51,9.10
2010,01,18,03,52,9.10
2010,01,18,03,53,9.10
2010,01,18,03,54,9.10
2010,01,18,03,55,9.10
2010,01,18,03,56,9.10
2010,01,18,03,57,9.10
2010,01,18,03,58,9.10
2010,01,18,03,59,9.10
2010,01,18,04,00,9.10
2010,01,18,04,01,9.10
2010,01,18,04,02,9.10
2010,01,18,04,03,9.10
2010,01,18,04,04,9.10
2010,01,18,04,05,9.10
2010,01,18,04,06,9.10
2010,01,18,04,07,9.10
2010,01,18,09,13,8.20
2010,01,18,09,14,8.20
2010,01,18,09,15,8.20
2010,01,18,09,16,8.20
2010,01,18,09,17,8.20
2010,01,18,09,18,8.20
2010,01,18,09,19,8.20
2010,01,18,09,20,8.20
2010,01,18,09,21,8.20
2010,01,18,09,22,8.20
2010,01,18,09,23,8.20
2010,01,18,09,24,8.20
2010,01,18,09,25,8.20
2010,01,18,09,26,8.30
2010,01,18,09,27,8.30
2010,01,18,09,28,8.40
2010,01,18,09,29,8.40
2010,01,18,09,30,8.50
2010,01,18,09,31,8.50
2010,01,18,09,32,8.50
2010,01,18,09,33,8.60
2010,01,18,09,34,8.70
2010,01,18,09,35,8.70
2010,01,18,09,36,8.70
2010,01,18,09,37,8.70
2010,01,18,09,38,8.70
2010,01,18,09,39,8.70
2010,01,18,09,40,8.80
2010,01,18,09,41,8.80
2010,01,18,09,42,8.80
2010,01,18,09,43,8.90
2010,01,18,09,44,8.90
2010,01,18,09,45,8.90
2010,01,18,09,46,9.00
2010,01,18,09,47,9.00
2010,01,18,09,48,9.00
2010,01,18,09,49,9.00
2010,01,18,09,50,9.00
2010,01,18,09,51,9.00
2010,01,18,09,52,9.10
2010,01,18,09,53,9.10
2010,01,18,09,54,9.10
2010,01,18,09,55,9.20
2010,01,18,09,56,9.20
2010,01,18,09,57,9.20
2010,01,18,09,58,9.20
2010,01,18,09,59,9.20
2010,01,18,10,00,9.20
2010,01,18,10,01,9.20
2010,01,18,10,02,9.30
2010,01,18,10,03,9.40
2010,01,18,10,04,9.40
2010,01,18,10,05,9.50
2010,01,18,10,06,9.60
2010,01,18,10,07,9.70
2010,01,18,10,08,9.70
2010,01,18,10,09,9.80
2010,01,18,10,10,9.90
2010,01,18,10,11,9.90
2010,01,18,10,12,9.90
2010,01,18,10,13,10.10
2010,01,18,10,14,10.10
2010,01,18,10,15,9.90
2010,01,18,10,16,9.90
2010,01,18,10,17,9.90
2010,01,18,10,18,9.80
2010,01,18,10,19,9.80
2010,01,18,10,20,9.80
2010,01,18,10,21,9.80
2010,01,18,10,22,9.80
2010,01,18,10,23,9.80
2010,01,18,10,24,9.90
2010,01,18,10,25,9.90
2010,01,18,10,26,9.90
2010,01,18,10,27,9.90
2010,01,18,10,28,9.90
2010,01,18,10,29,9.90
2010,01,18,10,30,9.90
2010,01,18,10,31,9.90
2010,01,18,10,32,9.90
2010,01,18,10,33,9.90
2010,01,18,10,34,9.90
2010,01,18,10,35,9.90
2010,01,18,10,36,9.90
2010,01,18,10,37,9.90
2010,01,18,10,38,9.90
2010,01,18,10,39,10.00
2010,01,18,10,40,10.10
2010,01,18,10,41,10.10
2010,01,18,10,42,10.10
2010,01,18,10,43,10.10
2010,01,18,10,44,10.10
2010,01,18,10,45,10.10
2010,01,18,10,46,10.10
2010,01,18,10,47,9.90
2010,01,18,10,48,9.90
2010,01,18,10,49,9.70
2010,01,18,10,50,9.50
2010,01,18,10,51,9.50
2010,01,18,10,52,9.40
2010,01,18,10,53,9.40
2010,01,18,10,54,9.40
2010,01,18,10,55,9.40
2010,01,18,10,56,9.40
2010,01,18,10,57,9.40
2010,01,18,10,58,9.40
2010,01,18,10,59,9.40
2010,01,18,11,00,9.40
2010,01,18,11,01,9.30
2010,01,18,11,02,9.30
2010,01,18,11,03,9.30
2010,01,18,11,04,9.20
2010,01,18,11,05,9.20
2010,01,18,11,06,9.10
2010,01,18,11,07,9.10
2010,01,18,11,08,9.10
2010,01,18,11,09,9.00
2010,01,18,11,10,9.00
2010,01,18,11,11,9.00
2010,01,18,11,12,9.00
2010,01,18,11,13,9.00
2010,01,18,11,14,9.00
2010,01,18,11,15,9.00
2010,01,18,11,16,9.10
2010,01,18,11,17,9.10
2010,01,18,11,18,9.10
2010,01,18,11,19,9.20
2010,01,18,11,20,9.20
2010,01,18,11,21,9.20
2010,01,18,11,22,9.20
2010,01,18,11,23,9.20
2010,01,18,11,24,9.30
2010,01,18,11,25,9.30
2010,01,18,11,26,9.40
2010,01,18,11,27,9.40
2010,01,18,11,28,9.40
2010,01,18,11,29,9.50
2010,01,18,11,30,9.50
2010,01,18,11,31,9.50
2010,01,18,11,32,9.50
2010,01,18,11,33,9.60
2010,01,18,11,34,9.60
2010,01,18,11,35,9.60
2010,01,18,11,36,9.60
2010,01,18,11,37,9.60
2010,01,18,11,38,9.60
2010,01,18,11,39,9.60
2010,01,18,11,40,9.70
2010,01,18,11,41,9.70
2010,01,18,11,42,9.70
2010,01,18,11,43,9.70
2010,01,18,11,44,9.70
2010,01,18,11,45,9.70
2010,01,18,11,46,9.60
2010,01,18,11,47,9.60
2010,01,18,11,48,9.50
2010,01,18,11,49,9.50
2010,01,18,11,50,9.40
2010,01,18,11,51,9.40
2010,01,18,11,52,9.30
2010,01,18,11,53,9.30
2010,01,18,11,54,9.30
2010,01,18,11,55,9.30
2010,01,18,11,56,9.30
2010,01,18,11,57,9.20
2010,01,18,11,58,9.20
2010,01,18,11,59,9.20
2010,01,18,12,00,9.10
2010,01,18,12,01,9.10
2010,01,18,12,02,9.10
2010,01,18,12,03,9.10
2010,01,18,12,04,9.10
2010,01,18,12,05,9.10
2010,01,18,12,06,9.10
2010,01,18,12,07,9.10
2010,01,18,12,08,9.20
2010,01,18,12,09,9.20
2010,01,18,12,10,9.20
2010,01,18,12,11,9.20
2010,01,18,12,12,9.20
2010,01,18,12,13,9.20
2010,01,18,12,14,9.20
2010,01,18,12,15,9.20
2010,01,18,12,16,9.20
2010,01,18,12,17,9.10
2010,01,18,12,18,9.10
2010,01,18,12,19,9.20
2010,01,18,12,20,9.20
2010,01,18,12,21,9.20
2010,01,18,12,22,9.20
2010,01,18,12,23,9.20
2010,01,18,12,24,9.30
2010,01,18,12,25,9.30
2010,01,18,12,26,9.40
2010,01,18,12,27,9.40
2010,01,18,12,28,9.50
2010,01,18,12,29,9.50
2010,01,18,12,30,9.50
2010,01,18,12,31,9.50
2010,01,18,12,32,9.60
2010,01,18,12,33,9.60
2010,01,18,12,34,9.60
2010,01,18,12,35,9.70
2010,01,18,12,36,9.60
2010,01,18,12,37,9.60
2010,01,18,12,38,9.60
2010,01,18,12,39,9.50
2010,01,18,12,40,9.50
2010,01,18,12,41,9.50
2010,01,18,12,42,9.50
2010,01,18,12,43,9.60
2010,01,18,12,44,9.60
2010,01,18,12,45,9.70
2010,01,18,12,46,9.70
2010,01,18,12,47,9.60
2010,01,18,12,48,9.50
2010,01,18,12,49,9.50
2010,01,18,12,50,9.60
2010,01,18,12,51,9.60
2010,01,18,12,52,9.60
2010,01,18,12,53,9.70
2010,01,18,12,54,9.60
2010,01,18,12,55,9.60
2010,01,18,12,56,9.50
2010,01,18,12,57,9.50
2010,01,18,12,58,9.50
2010,01,18,12,59,9.50
2010,01,18,13,00,9.50
2010,01,18,13,01,9.50
2010,01,18,13,02,9.40
2010,01,18,13,03,9.40
2010,01,18,13,04,9.40
2010,01,18,13,05,9.40
2010,01,18,13,06,9.40
2010,01,18,13,07,9.40
2010,01,18,13,08,9.40
2010,01,18,13,09,9.50
2010,01,18,13,10,9.50
2010,01,18,13,11,9.50
2010,01,18,13,12,9.50
2010,01,18,13,13,9.60
2010,01,18,13,14,9.50
2010,01,18,13,15,9.40
2010,01,18,13,16,9.40
2010,01,18,13,17,9.30
2010,01,18,13,18,9.20
2010,01,18,13,19,9.20
2010,01,18,13,20,9.20
2010,01,18,13,21,9.20
2010,01,18,13,22,9.20
2010,01,18,13,23,9.20
2010,01,18,13,24,9.20
2010,01,18,13,25,9.20
2010,01,18,13,26,9.20
2010,01,18,13,27,9.10
2010,01,18,13,28,9.10
2010,01,18,13,29,9.10
2010,01,18,13,30,9.10
2010,01,18,13,31,9.10
2010,01,18,13,32,9.10
2010,01,18,13,33,9.10
2010,01,18,13,34,9.10
2010,01,18,13,35,9.10
2010,01,18,13,36,9.10
2010,01,18,13,37,9.10
2010,01,18,13,38,9.10
2010,01,18,13,39,9.00
2010,01,18,13,40,9.10
2010,01,18,13,41,9.10
2010,01,18,13,42,9.10
2010,01,18,13,43,9.10
2010,01,18,13,44,9.00
2010,01,18,13,45,9.00
2010,01,18,13,46,9.00
2010,01,18,13,47,9.00
2010,01,18,13,48,9.00
2010,01,18,13,49,9.00
2010,01,18,13,50,9.00
2010,01,18,13,51,9.10
2010,01,18,13,52,9.10
2010,01,18,13,53,9.10
2010,01,18,13,54,9.00
2010,01,18,13,55,9.00
2010,01,18,13,56,9.00
2010,01,18,13,57,9.00
2010,01,18,13,58,9.10
2010,01,18,13,59,9.00
2010,01,18,14,00,9.00
2010,01,18,14,01,9.10
2010,01,18,14,02,9.10
2010,01,18,14,03,9.10
2010,01,18,14,04,9.10
2010,01,18,14,05,9.10
2010,01,18,14,06,9.10
2010,01,18,14,07,9.10
2010,01,18,14,08,9.10
2010,01,18,14,09,9.00
2010,01,18,14,10,9.00
2010,01,18,14,11,9.00
2010,01,18,14,12,9.00
2010,01,18,14,13,9.00
2010,01,18,14,14,9.00
2010,01,18,14,15,9.00
2010,01,18,14,16,9.00
2010,01,18,14,17,9.00
2010,01,18,14,18,9.00
2010,01,18,14,19,9.00
2010,01,18,14,20,9.00
2010,01,18,14,21,9.00
2010,01,18,14,22,9.00
2010,01,18,14,23,9.00
2010,01,18,14,24,9.00
2010,01,18,14,25,9.00
2010,01,18,14,26,9.10
2010,01,18,14,27,9.10
2010,01,18,14,28,9.10
2010,01,18,14,29,9.10
2010,01,18,14,30,9.10
2010,01,18,14,31,9.10
2010,01,18,14,32,9.10
2010,01,18,14,33,9.10
2010,01,18,14,34,9.20
2010,01,18,14,35,9.20
2010,01,18,14,36,9.20
2010,01,18,14,37,9.20
2010,01,18,14,38,9.30
2010,01,18,14,39,9.30
2010,01,18,14,40,9.40
2010,01,18,14,41,9.50
2010,01,18,14,42,9.50
2010,01,18,14,43,9.50
2010,01,18,14,44,9.70
2010,01,18,14,45,9.70
2010,01,18,14,46,9.70
2010,01,18,14,47,9.70
2010,01,18,14,48,9.80
2010,01,18,14,49,9.80
2010,01,18,14,50,9.90
2010,01,18,14,51,9.90
2010,01,18,14,52,9.90
2010,01,18,14,53,9.90
2010,01,18,14,54,9.90
2010,01,18,14,55,9.90
2010,01,18,14,56,9.90
2010,01,18,14,57,9.90
2010,01,18,14,58,9.80
2010,01,18,14,59,9.80
2010,01,18,15,00,9.80
2010,01,18,15,01,9.80
2010,01,18,15,02,9.80
2010,01,18,15,03,9.80
2010,01,18,15,04,9.80
2010,01,18,15,05,9.80
2010,01,18,15,06,9.80
2010,01,18,15,07,9.80
2010,01,18,15,08,9.80
2010,01,18,15,09,9.80
2010,01,18,15,10,9.80
2010,01,18,15,11,9.80
2010,01,18,15,12,9.80
2010,01,18,15,13,9.80
2010,01,18,15,14,9.80
2010,01,18,15,15,9.70
2010,01,18,15,16,9.70
2010,01,18,15,17,9.80
2010,01,18,15,18,9.80
2010,01,18,15,19,9.80
2010,01,18,15,20,9.80
2010,01,18,15,21,9.80
2010,01,18,15,22,9.80
2010,01,18,15,23,9.80
2010,01,18,15,24,9.80
2010,01,18,15,25,9.80
2010,01,18,15,26,9.80
2010,01,18,15,27,9.80
2010,01,18,15,28,9.80
2010,01,18,15,29,9.80
2010,01,18,15,30,9.80
2010,01,18,15,31,9.80
2010,01,18,15,32,9.80
2010,01,18,15,33,9.80
2010,01,18,15,34,9.80
2010,01,18,15,35,9.70
2010,01,18,15,36,9.70
2010,01,18,15,37,9.70
2010,01,18,15,38,9.70
2010,01,18,15,39,9.70
2010,01,18,15,40,9.70
2010,01,18,15,41,9.70
2010,01,18,15,42,9.70
2010,01,18,15,43,9.70
2010,01,18,15,44,9.70
2010,01,18,15,45,9.60
2010,01,18,15,46,9.60
2010,01,18,15,47,9.50
2010,01,18,15,48,9.50
2010,01,18,15,49,9.50
2010,01,18,15,50,9.40
2010,01,18,15,51,9.40
2010,01,18,15,52,9.40
2010,01,18,15,53,9.40
2010,01,18,15,54,9.40
2010,01,18,15,55,9.40
2010,01,18,15,56,9.30
2010,01,18,15,57,9.30
2010,01,18,15,58,9.30
2010,01,18,15,59,9.20
2010,01,18,16,00,9.20
2010,01,18,16,01,9.20
2010,01,18,16,02,9.20
2010,01,18,16,03,9.20
2010,01,18,16,04,9.20
2010,01,18,16,05,9.20
2010,01,18,16,06,9.10
2010,01,18,16,07,9.10
2010,01,18,16,08,9.10
2010,01,18,16,09,9.10
2010,01,18,16,10,9.10
2010,01,18,16,11,9.10
2010,01,18,16,12,9.10
2010,01,18,16,13,9.10
2010,01,18,16,14,9.10
2010,01,18,16,15,9.10
2010,01,18,16,16,9.10
2010,01,18,16,17,9.10
2010,01,18,16,18,9.10
2010,01,18,16,19,9.10
2010,01,18,16,20,9.10
2010,01,18,16,21,9.00
2010,01,18,16,22,9.00
2010,01,18,16,23,9.00
2010,01,18,16,24,9.00
2010,01,18,16,25,9.00
2010,01,18,16,26,8.90
2010,01,18,16,27,8.90
2010,01,18,16,28,8.90
2010,01,18,16,29,8.90
2010,01,18,16,30,8.90
2010,01,18,16,31,8.80
2010,01,18,16,32,8.80
2010,01,18,16,33,8.80
2010,01,18,16,34,8.80
2010,01,18,16,35,8.80
2010,01,18,16,36,8.80
2010,01,18,16,37,8.80
2010,01,18,16,38,8.80
2010,01,18,16,39,8.70
2010,01,18,16,40,8.70
2010,01,18,16,41,8.70
2010,01,18,16,42,8.70
2010,01,18,16,43,8.70
2010,01,18,16,44,8.70
2010,01,18,16,45,8.70
2010,01,18,16,46,8.70
2010,01,18,16,47,8.70
2010,01,18,16,48,8.60
2010,01,18,16,49,8.60
2010,01,18,16,50,8.60
2010,01,18,16,51,8.60
2010,01,18,16,52,8.60
2010,01,18,16,53,8.50
2010,01,18,16,54,8.50
2010,01,18,16,55,8.50
2010,01,18,16,56,8.50
2010,01,18,16,57,8.50
2010,01,18,16,58,8.50
2010,01,18,16,59,8.50
2010,01,18,17,00,8.40
2010,01,18,17,01,8.40
2010,01,18,17,02,8.40
2010,01,18,17,03,8.40
2010,01,18,17,04,8.40
2010,01,18,17,05,8.30
2010,01,18,17,06,8.30
2010,01,18,17,07,8.30
2010,01,18,17,08,8.30
2010,01,18,17,09,8.30
2010,01,18,17,10,8.30
2010,01,18,17,11,8.20
2010,01,18,17,12,8.20
2010,01,18,17,13,8.20
2010,01,18,17,14,8.20
2010,01,18,17,15,8.20
2010,01,18,17,16,8.20
2010,01,18,17,17,8.20
2010,01,18,17,18,8.20
2010,01,18,17,19,8.20
2010,01,18,17,20,8.20
2010,01,18,17,21,8.20
2010,01,18,17,22,8.20
2010,01,18,17,23,8.20
2010,01,18,17,24,8.20
2010,01,18,17,25,8.30
2010,01,18,17,26,8.30
2010,01,18,17,27,8.30
2010,01,18,17,28,8.30
2010,01,18,17,29,8.30
2010,01,18,17,30,8.30
2010,01,18,17,31,8.30
2010,01,18,17,32,8.30
2010,01,18,17,33,8.30
2010,01,18,17,34,8.30
2010,01,18,17,35,8.30
2010,01,18,17,36,8.30
2010,01,18,17,37,8.30
2010,01,18,17,38,8.40
2010,01,18,17,39,8.40
2010,01,18,17,40,8.40
2010,01,18,17,41,8.40
2010,01,18,17,42,8.40
2010,01,18,17,43,8.40
2010,01,18,17,44,8.40
2010,01,18,17,45,8.40
2010,01,18,17,46,8.40
2010,01,18,17,47,8.40
2010,01,18,17,48,8.40
2010,01,18,17,49,8.40
2010,01,18,17,50,8.40
2010,01,18,17,51,8.40
2010,01,18,17,52,8.30
2010,01,18,17,53,8.30
2010,01,18,17,54,8.30
2010,01,18,17,55,8.30
2010,01,18,17,56,8.30
2010,01,18,17,57,8.30
2010,01,18,17,58,8.30
2010,01,18,17,59,8.30
2010,01,18,18,00,8.40
2010,01,18,18,01,8.40
2010,01,18,18,02,8.40
2010,01,18,18,03,8.40
2010,01,18,18,04,8.40
2010,01,18,18,05,8.40
2010,01,18,18,06,8.50
2010,01,18,18,07,8.50
2010,01,18,18,08,8.50
2010,01,18,18,09,8.50
2010,01,18,18,10,8.50
2010,01,18,18,11,8.50
2010,01,18,18,12,8.40
2010,01,18,18,13,8.40
2010,01,18,18,14,8.40
2010,01,18,18,15,8.40
2010,01,18,18,16,8.40
2010,01,18,18,17,8.40
2010,01,18,18,18,8.40
2010,01,18,18,19,8.40
2010,01,18,18,20,8.50
2010,01,18,18,21,8.50
2010,01,18,18,22,8.50
2010,01,18,18,23,8.60
2010,01,18,18,24,8.60
2010,01,18,18,25,8.70
2010,01,18,18,26,8.70
2010,01,18,18,27,8.90
2010,01,18,18,28,9.00
2010,01,18,18,29,9.00
2010,01,18,18,30,9.10
2010,01,18,18,31,9.10
2010,01,18,18,32,9.20
2010,01,18,18,33,9.20
2010,01,18,18,34,9.10
2010,01,18,18,35,9.10
2010,01,18,18,36,9.00
2010,01,18,18,37,9.00
2010,01,18,18,38,8.90
2010,01,18,18,39,8.90
2010,01,18,18,40,8.90
2010,01,18,18,41,8.80
2010,01,18,18,42,8.80
2010,01,18,18,43,8.70
2010,01,18,18,44,8.70
2010,01,18,18,45,8.70
2010,01,18,18,46,8.70
2010,01,18,18,47,8.70
2010,01,18,18,48,8.70
2010,01,18,18,49,8.70
2010,01,18,18,50,8.70
2010,01,18,18,51,8.70
2010,01,18,18,52,8.70
2010,01,18,18,53,8.70
2010,01,18,18,54,8.70
2010,01,18,18,55,8.60
2010,01,18,18,56,8.60
2010,01,18,18,57,8.60
2010,01,18,18,58,8.60
2010,01,18,18,59,8.60
2010,01,18,19,00,8.60
2010,01,18,19,01,8.60
2010,01,18,19,02,8.60
2010,01,18,19,03,8.60
2010,01,18,19,04,8.60
2010,01,18,19,05,8.60
2010,01,18,19,06,8.60
2010,01,18,19,07,8.60
2010,01,18,19,08,8.70
2010,01,18,19,09,8.70
2010,01,18,19,10,8.70
2010,01,18,19,11,8.70
2010,01,18,19,12,8.70
2010,01,18,19,13,8.70
2010,01,18,19,14,8.70
2010,01,18,19,15,8.70
2010,01,18,19,16,8.70
2010,01,18,19,17,8.70
2010,01,18,19,18,8.70
2010,01,18,19,19,8.70
2010,01,18,19,20,8.70
2010,01,18,19,21,8.70
2010,01,18,19,22,8.70
2010,01,18,19,23,8.70
2010,01,18,19,24,8.70
2010,01,18,19,25,8.70
2010,01,18,19,26,8.70
2010,01,18,19,27,8.70
2010,01,18,19,28,8.70
2010,01,18,19,29,8.70
2010,01,18,19,30,8.70
2010,01,18,19,31,8.70
2010,01,18,19,32,8.70
2010,01,18,19,33,8.70
2010,01,18,19,34,8.60
2010,01,18,19,35,8.60
2010,01,18,19,36,8.60
2010,01,18,19,37,8.60
2010,01,18,19,38,8.60
2010,01,18,19,39,8.60
2010,01,18,19,40,8.50
2010,01,18,19,41,8.50
2010,01,18,19,42,8.50
2010,01,18,19,43,8.50
2010,01,18,19,44,8.50
2010,01,18,19,45,8.50
2010,01,18,19,46,8.40
2010,01,18,19,47,8.40
2010,01,18,19,48,8.40
2010,01,18,19,49,8.40
2010,01,18,19,50,8.40
2010,01,18,19,51,8.30
2010,01,18,19,52,8.30
2010,01,18,19,53,8.30
2010,01,18,19,54,8.30
2010,01,18,19,55,8.30
2010,01,18,19,56,8.30
2010,01,18,19,57,8.30
2010,01,18,19,58,8.30
2010,01,18,19,59,8.30
2010,01,18,20,00,8.30
2010,01,18,20,01,8.20
2010,01,18,20,02,8.20
2010,01,18,20,03,8.20
2010,01,18,20,04,8.20
2010,01,18,20,05,8.20
2010,01,18,20,06,8.20
2010,01,18,20,07,8.20
2010,01,18,20,08,8.20
2010,01,18,20,09,8.20
2010,01,18,20,10,8.20
2010,01,18,20,11,8.10
2010,01,18,20,12,8.10
2010,01,18,20,13,8.10
2010,01,18,20,14,8.10
2010,01,18,20,15,8.10
2010,01,18,20,16,8.10
2010,01,18,20,17,8.10
2010,01,18,20,18,8.10
2010,01,18,20,19,8.10
2010,01,18,20,20,8.10
2010,01,18,20,21,8.10
2010,01,18,20,22,8.20
2010,01,18,20,23,8.20
2010,01,18,20,24,8.20
2010,01,18,20,25,8.20
2010,01,18,20,26,8.20
2010,01,18,20,27,8.20
2010,01,18,20,28,8.20
2010,01,18,20,29,8.20
2010,01,18,20,30,8.20
2010,01,18,20,31,8.20
2010,01,18,20,32,8.20
2010,01,18,20,33,8.20
2010,01,18,20,34,8.20
2010,01,18,20,35,8.20
2010,01,18,20,36,8.20
2010,01,18,20,37,8.30
2010,01,18,20,38,8.30
2010,01,18,20,39,8.30
2010,01,18,20,40,8.40
2010,01,18,20,41,8.40
2010,01,18,20,42,8.40
2010,01,18,20,43,8.40
2010,01,18,20,44,8.40
2010,01,18,20,45,8.50
2010,01,18,20,46,8.50
2010,01,18,20,47,8.50
2010,01,18,20,48,8.50
2010,01,18,20,49,8.50
2010,01,18,20,50,8.50
2010,01,18,20,51,8.50
2010,01,18,20,52,8.50
2010,01,18,20,53,8.50
2010,01,18,20,54,8.50
2010,01,18,20,55,8.50
2010,01,18,20,56,8.50
2010,01,18,20,57,8.50
2010,01,18,20,58,8.50
2010,01,18,20,59,8.50
2010,01,18,21,00,8.50
2010,01,18,21,01,8.50
2010,01,18,21,02,8.50
2010,01,18,21,03,8.50
2010,01,18,21,04,8.50
2010,01,18,21,05,8.50
2010,01,18,21,06,8.50
2010,01,18,21,07,8.50
2010,01,18,21,08,8.50
2010,01,18,21,09,8.50
2010,01,18,21,10,8.50
2010,01,18,21,11,8.50
2010,01,18,21,12,8.50
2010,01,18,21,13,8.50
2010,01,18,21,14,8.50
2010,01,18,21,15,8.50
2010,01,18,21,16,8.50
2010,01,18,21,17,8.50
2010,01,18,21,18,8.50
2010,01,18,21,19,8.50
2010,01,18,21,20,8.50
2010,01,18,21,21,8.50
2010,01,18,21,22,8.50
2010,01,18,21,23,8.50
2010,01,18,21,24,8.50
2010,01,18,21,25,8.50
2010,01,18,21,26,8.50
2010,01,18,21,27,8.50
2010,01,18,21,28,8.50
2010,01,18,21,29,8.50
2010,01,18,21,30,8.50
2010,01,18,21,31,8.60
2010,01,18,21,32,8.60
2010,01,18,21,33,8.60
2010,01,18,21,34,8.70
2010,01,18,21,35,8.70
2010,01,18,21,36,8.70
2010,01,18,21,37,8.70
2010,01,18,21,38,8.70
2010,01,18,21,39,8.70
2010,01,18,21,40,8.70
2010,01,18,21,41,8.70
2010,01,18,21,42,8.70
2010,01,18,21,43,8.80
2010,01,18,21,44,8.80
2010,01,18,21,45,8.80
2010,01,18,21,46,8.80
2010,01,18,21,47,8.90
2010,01,18,21,48,8.90
2010,01,18,21,49,8.90
2010,01,18,21,50,8.90
2010,01,18,21,51,8.90
2010,01,18,21,52,8.90
2010,01,18,21,53,8.90
2010,01,18,21,54,8.90
2010,01,18,21,55,8.90
2010,01,18,21,56,8.90
2010,01,18,21,57,8.90
2010,01,18,21,58,8.80
2010,01,18,21,59,8.80
2010,01,18,22,00,8.80
2010,01,18,22,01,8.80
2010,01,18,22,02,8.70
2010,01,18,22,03,8.70
2010,01,18,22,04,8.70
2010,01,18,22,05,8.70
2010,01,18,22,06,8.70
2010,01,18,22,07,8.70
2010,01,18,22,08,8.70
2010,01,18,22,09,8.70
2010,01,18,22,10,8.70
2010,01,18,22,11,8.70
2010,01,18,22,12,8.80
2010,01,18,22,13,8.80
2010,01,18,22,14,8.90
2010,01,18,22,15,8.90
2010,01,18,22,16,8.90
2010,01,18,22,17,9.00
2010,01,18,22,18,9.00
2010,01,18,22,19,8.90
2010,01,18,22,20,8.90
2010,01,18,22,21,8.90
2010,01,18,22,22,8.90
2010,01,18,22,23,8.90
2010,01,18,22,24,8.90
2010,01,18,22,25,8.80
2010,01,18,22,26,8.80
2010,01,18,22,27,8.80
2010,01,18,22,28,8.80
2010,01,18,22,29,8.70
2010,01,18,22,30,8.70
2010,01,18,22,31,8.70
2010,01,18,22,32,8.70
2010,01,18,22,33,8.70
2010,01,18,22,34,8.70
2010,01,18,22,35,8.70
2010,01,18,22,36,8.70
2010,01,18,22,37,8.70
2010,01,18,22,38,8.70
2010,01,18,22,39,8.70
2010,01,18,22,40,8.70
2010,01,18,22,41,8.70
2010,01,18,22,42,8.70
2010,01,18,22,43,8.70
2010,01,18,22,44,8.70
2010,01,18,22,45,8.60
2010,01,18,22,46,8.60
2010,01,18,22,47,8.60
2010,01,18,22,48,8.50
2010,01,18,22,49,8.50
2010,01,18,22,50,8.50
2010,01,18,22,51,8.50
2010,01,18,22,52,8.40
2010,01,18,22,53,8.40
2010,01,18,22,54,8.40
2010,01,18,22,55,8.40
2010,01,18,22,56,8.40
2010,01,18,22,57,8.40
2010,01,18,22,58,8.40
2010,01,18,22,59,8.40
2010,01,18,23,00,8.40
2010,01,18,23,01,8.40
2010,01,18,23,02,8.40
2010,01,18,23,03,8.40
2010,01,18,23,04,8.40
2010,01,18,23,05,8.40
2010,01,18,23,06,8.50